Regional Weather Roundup
Issued by NWS

Home | Current Version | Previous Version | Graphics & Text | Print | Product List | Glossary On
Versions: 1 2 3 4 5 6 7 8 9 10 11 12 13 14 15 16 17 18 19 20 21 22 23 24 25 26 27 28 29 30 31 32 33 34 35 36 37 38 39 40 41 42 43 44 45 46 47 48 49 50
000
ASUS43 KMKX 191700
RWRWI

WISCONSIN REGIONAL WEATHER ROUNDUP
NATIONAL WEATHER SERVICE MILWAUKEE/SULLIVAN WI
1200 PM CDT FRI SEP 19 2014

NOTE: "FAIR" INDICATES FEW OR NO CLOUDS BELOW 12,000 FEET WITH NO
SIGNIFICANT WEATHER AND/OR OBSTRUCTIONS TO VISIBILITY.

WIZ001-002-006>008-014>016-023>028-191800-
NORTHWEST WISCONSIN

CITY           SKY/WX    TMP DP  RH WIND       PRES   REMARKS
SUPERIOR ARPT  CLOUDY    62  55  77 SW12      29.71F
ASHLAND        CLOUDY    63  52  67 S13G22    29.76F
HAYWARD        CLOUDY    63  53  70 S16G32    29.79F
SIREN          CLOUDY    64  54  70 S18G28    29.76F
RICE LAKE      PTSUNNY   65  53  67 SE17G25   29.85F
LADYSMITH      CLOUDY    64  53  69 S17G23    29.91F
EAU CLAIRE     NOT AVBL
MENOMONIE      MOSUNNY   68  54  60 S20G26    29.87F
NEW RICHMOND   CLOUDY    66  55  66 S16G25    29.81F
OSCEOLA        CLOUDY    65  55  70 S16G28    29.82F
$$

WIZ003>005-009-010-017-018-191800-
NORTH CENTRAL WISCONSIN

CITY           SKY/WX    TMP DP  RH WIND       PRES   REMARKS
WOODRUFF       CLOUDY    59  50  71 S17G28    29.92F
RHINELANDER    CLOUDY    62  49  62 S13G22    29.96F
EAGLE RIVER    CLOUDY    61  46  59 S14G24    29.94F
LAND O LAKES   PTSUNNY   62  49  62 S13G18    29.93F
PHILLIPS       CLOUDY    60  51  72 S13       29.91F
TOMAHAWK       PTSUNNY   60  50  69 S7        29.96F
MEDFORD        PTSUNNY   62  52  69 S17G23    29.95F
MERRILL        PTSUNNY   62  51  67 S16       29.97F
$$

WIZ029-030-035-036-043>047-191800-
CENTRAL WISCONSIN

CITY           SKY/WX    TMP DP  RH WIND       PRES   REMARKS
WAUSAU         PTSUNNY   64  51  62 S17G24    29.96F
MOSINEE        SUNNY     63  54  72 S15G22    30.00F
MARSHFIELD     MOSUNNY   67  53  61 S16G25    29.96F
STEVENS POINT  MOSUNNY   63  51  64 S15       30.02F
WAUPACA        MOSUNNY   68  53  60 S15       30.04F
WAUTOMA        NOT AVBL
WISC RAPIDS    MOSUNNY   68  51  54 S12       30.01F
CAMP DOUGLAS   NOT AVBL
$$

WIZ011>013-019>022-031-037>040-048>050-191800-
NORTHEAST WISCONSIN

CITY           SKY/WX    TMP DP  RH WIND       PRES   REMARKS
ANTIGO         PTSUNNY   60  52  75 S13       30.01F
STURGEON BAY   MOSUNNY   63  57  82 S17G23    30.06F
GREEN BAY      SUNNY     68  53  58 S14G23    30.04F
MANITOWOC      NOT AVBL
APPLETON       MOSUNNY   68  52  56 S17G23    30.05F
CLINTONVILLE   MOSUNNY   64  52  63 S13       30.04F
OSHKOSH        SUNNY     69  53  56 S22G30    30.05F
$$

WIZ032>034-041-042-053>061-191800-
SOUTHWEST WISCONSIN

CITY           SKY/WX    TMP DP  RH WIND       PRES   REMARKS
LA CROSSE      MOSUNNY   71  54  54 S21G31    29.94F
SPARTA         SUNNY     70  52  52 S13G28    29.97F
VIROQUA        FAIR      66  55  66 S15G24    29.99F
BOSCOBEL       SUNNY     71  54  54 S13G24    30.01F
PRAIRIE DU CHI SUNNY     68  53  58 SE14G20   30.00F
PLATTEVILLE    FAIR      68  55  64 S16       30.07F
$$

WIZ056-057-062-063-064-067-068-191800-
SOUTH CENTRAL WISCONSIN

CITY           SKY/WX    TMP DP  RH WIND       PRES   REMARKS
BARABOO/DELLS  SUNNY     68  51  54 S14G21    30.04F
LONE ROCK      NOT AVBL
WATERTOWN      SUNNY     69  52  53 SW15G22   30.08F
MADISON        MOSUNNY   70  51  51 S20G26    30.06F
MIDDLETON      FAIR      70  51  51 S15G21    30.06F
MONROE         SUNNY     68  52  56 S18       30.08F
JANESVILLE     SUNNY     72  52  49 S14G20    30.09F
$$

WIZ051-052-058>065-066-070>072-191800-
SOUTHEAST WISCONSIN

CITY           SKY/WX    TMP DP  RH WIND       PRES   REMARKS
MILWAUKEE      PTSUNNY   70  51  51 SW17G26   30.10F
WAUKESHA       MOSUNNY   66  52  59 S14G22    30.11F
MILWAUKEE/TIMM SUNNY     70  48  46 S13G23    30.10F
RACINE         SUNNY     67  55  65 SE13      30.13S
BURLINGTON     SUNNY     69  50  50 S14G22    30.11F
KENOSHA        SUNNY     70  52  52 S15G22    30.12S
FOND DU LAC    SUNNY     69  51  52 SW16G26   30.06F
SHEBOYGAN      SUNNY     69  55  60 S13       30.09F
WEST BEND      SUNNY     68  48  49 S14G22    30.09F
JUNEAU         SUNNY     69  53  56 S17G24    30.09F
$$

LSZ147-162-191800-
LAKE SUPERIOR

STATION/POSITION TIME  TEMP    WIND        PRES    WAVE
                       AIR SEA DIR/SP/G            HT/PER
                 (UTC) (F)     (DEG/KT/KT) (MB)    (FT/S)
W MID LAKE BUOY  1550   54 49  200/ 14/ 17 1009.6F   3/ 5
DEVILS ISLAND    1600   60     180/ 12/ 18 1008.5F
PORT WING        1613   63     190/ 14/ 28 1007.8F
SAXON HARBOR     1640   66     200/ 15     1009.1F
$$

LMZ867-665-643>646-191800-
LAKE MICHIGAN

STATION/POSITION TIME  TEMP    WIND        PRES    WAVE
                       AIR SEA DIR/SP/G            HT/PER
                 (UTC) (F)     (DEG/KT/KT) (MB)    (FT/S)
N MID LAKE BUOY  1550   56 58  200/ 21/ 27 1018.8F   5/ 6
NORTHPORT PIER   1602   60     160/  9/ 19 1017.9F
SISTER BAY       1627   63     180/ 22/ 30   N/A
KEWAUNEE LAKESHO 1600   57     180/ 14/ 20 1017.9F
SHEBOYGAN LAKESH 1600   57 50  180/ 16/ 17 1019.6F
PORT WASHINGTON  1600   64     180/  9/ 13 1020.0F
ATWATER BUOY     1600   60     160/ 16/ 21 1020.4F
MILWAUKEE LAKESH 1600   60     150/ 14/ 16   N/A
S MID LAKE BUOY  1550   62 65  170/ 17/ 21 1021.0F   4/ 5
KENOSHA   LAKESH 1600   61     160/ 16/ 18 1019.6F
$$

TC  - TEMPERATURE IN CELSIUS
VSB - VISIBILITY IN STATUTE MILES
WCI - WIND CHILL INDEX
HX  - HEAT INDEX



USA.gov is the U.S. government's official web portal to all federal, state and local government web resources and services.